Weather History for McAlester, OK

Change the Weather History Date:

Thursday, October 3, 2013

  Actual Average Record
Temperature  
Mean Temperature 79 °F -  
Max Temperature 87 °F 80 °F 96 °F (1963)
Min Temperature 71 °F 56 °F 37 °F (1975)
Cooling Degree Days 14    
Growing Degree Days 29 (Base 50)    
Moisture  
Dew Point 68 °F    
Average Humidity 72    
Maximum Humidity 87    
Minimum Humidity 48    
Precipitation  
Precipitation 0.00 in - - ()
Sea Level Pressure  
Sea Level Pressure 29.87 in    
Wind  
Wind Speed 8 mph (South)    
Max Wind Speed 13 mph    
Max Gust Speed 24 mph    
Visibility 10 miles    
Events      
Averages and records for this station are not official NWS values.
T = Trace of Precipitation, MM = Missing Value Source: NWS Daily Summary

Daily Weather History Graph

Daily Weather History Graph

Search for Another Location

Airport:

Trip Planner

Search our weather history database for the weather conditions in past years. The results will help you decide how hot, cold, wet, or windy it might be!

Date:

Astronomy

Oct. 03, 2013 Rise Set
Actual Time 7:19 AM CDT 7:03 PM CDT
Civil Twilight 6:54 AM CDT 7:29 PM CDT
Nautical Twilight 6:25 AM CDT 7:58 PM CDT
Astronomical Twilight 5:55 AM CDT 8:27 PM CDT
Moon 5:56 AM CDT (10/3) 6:12 PM CDT (10/3)
Length of Visible Light 12h 34m
Length of Day
11h 44m
Waning Crescent, 2% of the Moon is Illuminated
Oct 3
Waning Crescent
Oct 4
New
Oct 11
First Quarter
Oct 18
Full
Oct 26
Last Quarter

Hourly Weather History & Observations

Time (CDT) Temp. Heat Index Dew Point Humidity Pressure Visibility Wind Dir Wind Speed Gust Speed Precip Events Conditions
12:53 AM 75.0 °F - 66.9 °F 76% 29.90 in 10.0 mi SSE 8.1 mph - N/A   Clear
1:53 AM 75.0 °F - 66.9 °F 76% 29.90 in 10.0 mi SSE 8.1 mph - N/A   Clear
2:53 AM 73.9 °F - 66.9 °F 79% 29.88 in 10.0 mi Variable 5.8 mph - N/A   Clear
3:53 AM 73.0 °F - 66.9 °F 81% 29.88 in 10.0 mi South 3.5 mph - N/A   Clear
4:53 AM 73.0 °F - 66.9 °F 81% 29.88 in 10.0 mi South 5.8 mph - N/A   Mostly Cloudy
5:53 AM 72.0 °F - 68.0 °F 87% 29.88 in 10.0 mi South 6.9 mph - N/A   Clear
6:53 AM 72.0 °F - 66.9 °F 84% 29.89 in 10.0 mi South 8.1 mph - N/A   Clear
7:30 AM 71.6 °F - 66.2 °F 83% 29.92 in 10.0 mi South 4.6 mph - N/A   Mostly Cloudy
7:53 AM 72.0 °F - 68.0 °F 87% 29.90 in 10.0 mi South 3.5 mph - N/A   Overcast
8:53 AM 73.0 °F - 69.1 °F 87% 29.92 in 10.0 mi South 8.1 mph - N/A   Overcast
9:53 AM 73.9 °F - 69.1 °F 85% 29.92 in 10.0 mi South 8.1 mph 16.1 mph N/A   Overcast
10:37 AM 75.2 °F - 69.8 °F 83% 29.94 in 10.0 mi South 8.1 mph - N/A   Overcast
10:53 AM 75.9 °F - 69.1 °F 79% 29.92 in 10.0 mi SSW 10.4 mph 18.4 mph N/A   Overcast
11:53 AM 79.0 °F - 69.1 °F 72% 29.90 in 10.0 mi SSE 11.5 mph 17.3 mph N/A   Overcast
12:53 PM 82.9 °F 86.5 °F 69.1 °F 63% 29.89 in 10.0 mi South 9.2 mph 19.6 mph N/A   Mostly Cloudy
1:15 PM 82.4 °F 86.3 °F 69.8 °F 66% 29.91 in 10.0 mi SSE 9.2 mph 16.1 mph N/A   Mostly Cloudy
1:40 PM 84.2 °F 88.4 °F 69.8 °F 62% 29.89 in 10.0 mi SSE 9.2 mph 20.7 mph N/A   Mostly Cloudy
1:53 PM 82.9 °F 86.5 °F 69.1 °F 63% 29.86 in 10.0 mi South 8.1 mph 17.3 mph N/A   Mostly Cloudy
2:53 PM 84.9 °F 87.6 °F 66.9 °F 55% 29.83 in 10.0 mi South 10.4 mph 23.0 mph N/A   Mostly Cloudy
3:53 PM 87.1 °F 88.9 °F 64.9 °F 48% 29.82 in 10.0 mi South 10.4 mph 20.7 mph N/A   Clear
4:53 PM 87.1 °F 89.2 °F 66.0 °F 49% 29.81 in 10.0 mi SSE 12.7 mph 24.2 mph N/A   Clear
5:53 PM 84.9 °F 87.1 °F 66.0 °F 53% 29.80 in 10.0 mi South 11.5 mph 19.6 mph N/A   Clear
6:53 PM 82.0 °F 84.5 °F 66.9 °F 60% 29.80 in 10.0 mi SSE 9.2 mph 18.4 mph N/A   Clear
7:53 PM 80.1 °F 82.3 °F 66.9 °F 64% 29.80 in 10.0 mi SSE 8.1 mph - N/A   Clear
8:53 PM 79.0 °F - 66.9 °F 66% 29.83 in 10.0 mi South 4.6 mph - N/A   Clear
9:53 PM 77.0 °F - 68.0 °F 74% 29.83 in 10.0 mi SSE 8.1 mph - N/A   Clear
11:53 PM 77.0 °F - 68.0 °F 74% 29.85 in 10.0 mi SSE 9.2 mph 17.3 mph N/A   Mostly Cloudy